Voltar ao catálogo

IABS R/B

LostGEO
NORAD 27877·ROCKET BODY·🇺🇸 United States

Lançado Aug 29, 2003 de Cape Canaveral Space Force Station

Loading…

TLE

EnvelhecendoSource: Space-Track

Época: Jul 21, 2026, 05:37 UTC

1 27877U 03040C   26202.23428213 -.00000038  00000-0  00000-0 0  9997
2 27877  13.4138  12.1957 0007957 320.5328  39.4364  1.00734028 26292

Acompanhe IABS R/B em tempo real com AllMySat

Download on the App Store